TimeCST,TemperatureF,Dew PointF,Humidity,Sea Level PressureIn,VisibilityMPH,Wind Direction,Wind SpeedMPH,Gust SpeedMPH,PrecipitationIn,Events,Conditions,WindDirDegrees,DateUTC
12:58 AM,34.0,31.5,90,30.38,10.0,SSW,3.5,-,N/A,,Clear,210,2013-11-08 06:58:00
1:58 AM,34.0,31.1,89,30.37,10.0,SW,3.5,-,N/A,,Clear,230,2013-11-08 07:58:00
2:58 AM,32.4,31.6,97,30.35,10.0,Calm,Calm,-,N/A,,Clear,0,2013-11-08 08:58:00
3:58 AM,30.7,30.6,99,30.35,10.0,SSE,4.6,-,N/A,,Clear,160,2013-11-08 09:58:00
4:58 AM,30.4,30.2,99,30.37,10.0,SSE,2.3,-,N/A,,Clear,160,2013-11-08 10:58:00
5:58 AM,29.5,29.1,99,30.35,10.0,SSE,5.8,-,N/A,,Clear,150,2013-11-08 11:58:00
6:58 AM,30.0,29.8,99,30.35,10.0,SE,6.9,-,N/A,,Clear,140,2013-11-08 12:58:00
7:58 AM,34.5,31.3,88,30.35,10.0,SSE,6.9,-,N/A,,Clear,160,2013-11-08 13:58:00
8:58 AM,42.6,32.2,67,30.35,10.0,SSE,8.1,-,N/A,,Clear,150,2013-11-08 14:58:00
9:58 AM,49.8,32.0,50,30.35,10.0,SSE,11.5,-,N/A,,Clear,150,2013-11-08 15:58:00
10:58 AM,54.5,32.9,44,30.30,10.0,SE,8.1,-,N/A,,Clear,140,2013-11-08 16:58:00
11:58 AM,58.8,34.7,40,30.27,10.0,South,8.1,-,N/A,,Clear,180,2013-11-08 17:58:00
12:58 PM,60.4,34.3,38,30.22,10.0,South,13.8,18.4,N/A,,Clear,190,2013-11-08 18:58:00
1:58 PM,61.3,33.4,35,30.18,10.0,South,11.5,20.7,N/A,,Clear,180,2013-11-08 19:58:00
2:58 PM,61.5,33.6,35,30.14,10.0,South,13.8,24.2,N/A,,Clear,170,2013-11-08 20:58:00
3:58 PM,60.4,34.0,37,30.13,10.0,South,11.5,23.0,N/A,,Clear,170,2013-11-08 21:58:00
4:58 PM,57.4,34.2,42,30.11,10.0,South,10.4,-,N/A,,Clear,170,2013-11-08 22:58:00
5:58 PM,54.3,35.1,48,30.11,10.0,SSE,13.8,18.4,N/A,,Clear,160,2013-11-08 23:58:00
6:58 PM,52.9,36.0,53,30.11,10.0,South,13.8,19.6,N/A,,Clear,170,2013-11-09 00:58:00
7:58 PM,51.6,36.9,57,30.10,10.0,South,12.7,-,N/A,,Clear,170,2013-11-09 01:58:00
8:58 PM,50.0,37.2,62,30.11,10.0,SSE,11.5,-,N/A,,Clear,160,2013-11-09 02:58:00
9:58 PM,49.6,37.8,64,30.12,10.0,South,8.1,-,N/A,,Clear,180,2013-11-09 03:58:00
10:58 PM,49.8,38.1,64,30.10,10.0,South,8.1,19.6,N/A,,Clear,180,2013-11-09 04:58:00
11:58 PM,49.8,38.5,65,30.11,10.0,South,9.2,19.6,N/A,,Clear,190,2013-11-09 05:58:00